Time,TemperatureF,DewpointF,PressureIn,WindDirection,WindDirectionDegrees,WindSpeedMPH,WindSpeedGustMPH,Humidity,HourlyPrecipIn,Conditions,Clouds,dailyrainin,SoftwareType,DateUTC
2013-04-02 00:02:00,28.5,14.8,29.99,North,357,0.0,0.0,56,0.00,,CLR,0.00,VWS V14.01,2013-04-02 04:02:00,
2013-04-02 00:07:00,28.5,15.2,29.99,North,357,0.0,1.0,57,0.00,,CLR,0.00,VWS V14.01,2013-04-02 04:07:00,
2013-04-02 00:13:00,28.4,15.1,29.99,North,357,0.0,0.0,57,0.00,,CLR,0.00,VWS V14.01,2013-04-02 04:13:00,
2013-04-02 00:22:00,28.2,15.3,29.99,North,357,0.0,1.0,58,0.00,,CLR,0.00,VWS V14.01,2013-04-02 04:22:00,
2013-04-02 00:27:00,28.2,15.3,29.99,North,357,0.0,0.0,58,0.00,,CLR,0.00,VWS V14.01,2013-04-02 04:27:00,
2013-04-02 00:32:00,28.2,15.3,29.99,North,357,0.0,0.0,58,0.00,,CLR,0.00,VWS V14.01,2013-04-02 04:32:00,
2013-04-02 00:37:00,28.2,15.3,29.99,North,357,0.0,1.0,58,0.00,,CLR,0.00,VWS V14.01,2013-04-02 04:37:00,
2013-04-02 00:47:00,28.1,15.6,29.99,North,357,0.0,1.0,59,0.00,,BKN060,0.00,VWS V14.01,2013-04-02 04:47:00,
2013-04-02 00:52:00,27.9,15.8,29.99,North,357,2.0,2.0,60,0.00,,BKN060,0.00,VWS V14.01,2013-04-02 04:52:00,
2013-04-02 00:57:00,28.2,15.3,29.99,WSW,239,1.0,4.0,58,0.00,,BKN060,0.00,VWS V14.01,2013-04-02 04:57:00,
2013-04-02 01:02:00,28.4,15.1,29.99,WSW,239,1.0,2.0,57,0.00,,BKN060,0.00,VWS V14.01,2013-04-02 05:02:00,
2013-04-02 01:07:00,28.4,15.1,29.99,WSW,239,0.0,1.0,57,0.00,,BKN060,0.00,VWS V14.01,2013-04-02 05:07:00,
2013-04-02 01:17:00,28.1,15.2,29.99,WSW,239,0.0,0.0,58,0.00,,BKN060,0.00,VWS V14.01,2013-04-02 05:17:00,
2013-04-02 01:22:00,28.1,15.2,29.99,WSW,239,0.0,0.0,58,0.00,,BKN060,0.00,VWS V14.01,2013-04-02 05:22:00,
2013-04-02 01:27:00,27.8,15.0,29.99,WSW,239,0.0,0.0,58,0.00,,BKN060,0.00,VWS V14.01,2013-04-02 05:27:00,
2013-04-02 01:32:00,27.6,15.6,29.99,WSW,239,0.0,0.0,60,0.00,,BKN060,0.00,VWS V14.01,2013-04-02 05:32:00,
2013-04-02 01:37:00,27.3,15.3,29.99,WSW,239,0.0,0.0,60,0.00,,BKN060,0.00,VWS V14.01,2013-04-02 05:37:00,
2013-04-02 01:42:00,27.5,15.4,29.99,WSW,239,0.0,0.0,60,0.00,,BKN055,0.00,VWS V14.01,2013-04-02 05:42:00,
2013-04-02 01:52:00,27.3,15.6,29.99,WSW,239,0.0,0.0,61,0.00,,BKN055,0.00,VWS V14.01,2013-04-02 05:52:00,
2013-04-02 01:57:00,27.5,15.1,29.99,WSW,239,0.0,0.0,59,0.00,,BKN055,0.00,VWS V14.01,2013-04-02 05:57:00,
2013-04-02 02:02:00,27.6,14.8,30.00,WSW,239,0.0,0.0,58,0.00,,BKN055,0.00,VWS V14.01,2013-04-02 06:02:00,
2013-04-02 02:12:00,26.7,15.1,30.00,North,6,0.0,0.0,61,0.00,,BKN055,0.00,VWS V14.01,2013-04-02 06:12:00,
2013-04-02 02:17:00,25.6,15.5,30.00,North,6,0.0,0.0,65,0.00,,BKN055,0.00,VWS V14.01,2013-04-02 06:17:00,
2013-04-02 02:22:00,25.6,15.5,30.00,North,6,0.0,0.0,65,0.00,,BKN055,0.00,VWS V14.01,2013-04-02 06:22:00,
2013-04-02 02:27:00,26.0,15.9,30.00,North,6,0.0,0.0,65,0.00,,BKN055,0.00,VWS V14.01,2013-04-02 06:27:00,
2013-04-02 02:37:00,26.0,15.9,30.00,North,4,0.0,0.0,65,0.00,,BKN055,0.00,VWS V14.01,2013-04-02 06:37:00,
2013-04-02 02:42:00,26.1,16.0,30.00,North,1,0.0,0.0,65,0.00,,CLR,0.00,VWS V14.01,2013-04-02 06:42:00,
2013-04-02 02:47:00,26.1,16.0,30.00,North,1,0.0,0.0,65,0.00,,CLR,0.00,VWS V14.01,2013-04-02 06:47:00,
2013-04-02 02:57:00,25.8,16.0,30.00,North,0,0.0,0.0,66,0.00,,CLR,0.00,VWS V14.01,2013-04-02 06:57:00,
2013-04-02 03:02:00,25.8,16.0,30.00,North,0,0.0,0.0,66,0.00,,CLR,0.00,VWS V14.01,2013-04-02 07:02:00,
2013-04-02 03:12:00,26.0,15.9,30.00,North,0,0.0,0.0,65,0.00,,CLR,0.00,VWS V14.01,2013-04-02 07:12:00,
2013-04-02 03:22:00,26.3,15.8,30.00,North,0,0.0,0.0,64,0.00,,CLR,0.00,VWS V14.01,2013-04-02 07:22:00,
2013-04-02 03:27:00,26.4,15.9,30.00,North,0,0.0,0.0,64,0.00,,CLR,0.00,VWS V14.01,2013-04-02 07:27:00,
2013-04-02 03:32:00,26.4,15.9,30.00,North,0,0.0,0.0,64,0.00,,CLR,0.00,VWS V14.01,2013-04-02 07:32:00,
2013-04-02 03:42:00,26.1,16.0,30.00,NNW,332,0.0,0.0,65,0.00,,BKN049,0.00,VWS V14.01,2013-04-02 07:42:00,
2013-04-02 03:47:00,26.1,16.0,30.00,NW,311,0.0,0.0,65,0.00,,BKN049,0.00,VWS V14.01,2013-04-02 07:47:00,
2013-04-02 03:57:00,26.1,15.6,30.00,WNW,301,0.0,0.0,64,0.00,,BKN049,0.00,VWS V14.01,2013-04-02 07:57:00,
2013-04-02 04:02:00,26.0,15.9,30.00,WNW,301,0.0,0.0,65,0.00,,BKN049,0.00,VWS V14.01,2013-04-02 08:02:00,
2013-04-02 04:07:00,26.0,15.9,30.00,WNW,301,0.0,0.0,65,0.00,,BKN049,0.00,VWS V14.01,2013-04-02 08:07:00,
2013-04-02 04:12:00,26.1,16.0,30.00,WNW,301,0.0,0.0,65,0.00,,BKN049,0.00,VWS V14.01,2013-04-02 08:12:00,
2013-04-02 04:22:00,25.8,15.7,30.00,WNW,299,0.0,0.0,65,0.00,,BKN049,0.00,VWS V14.01,2013-04-02 08:22:00,
2013-04-02 04:27:00,25.6,15.8,30.00,WNW,299,0.0,0.0,66,0.00,,BKN049,0.00,VWS V14.01,2013-04-02 08:27:00,
2013-04-02 04:37:00,25.7,15.6,30.00,WNW,299,0.0,0.0,65,0.00,,BKN049,0.00,VWS V14.01,2013-04-02 08:37:00,
2013-04-02 04:42:00,25.7,15.6,30.00,WNW,299,0.0,0.0,65,0.00,,BKN049,0.00,VWS V14.01,2013-04-02 08:42:00,
2013-04-02 04:52:00,25.6,15.8,30.00,WNW,299,0.0,0.0,66,0.00,,BKN049,0.00,VWS V14.01,2013-04-02 08:52:00,
2013-04-02 05:02:00,25.4,15.6,30.01,WNW,299,0.0,0.0,66,0.00,,BKN049,0.00,VWS V14.01,2013-04-02 09:02:00,
2013-04-02 05:12:00,25.4,15.3,30.01,WNW,299,0.0,0.0,65,0.00,,BKN049,0.00,VWS V14.01,2013-04-02 09:12:00,
2013-04-02 05:22:00,25.3,15.6,30.01,WNW,299,0.0,0.0,66,0.00,,SCT050,0.00,VWS V14.01,2013-04-02 09:22:00,
2013-04-02 05:32:00,25.3,15.2,30.02,WNW,299,0.0,0.0,65,0.00,,SCT050,0.00,VWS V14.01,2013-04-02 09:32:00,
2013-04-02 05:37:00,25.3,15.2,30.02,WNW,299,0.0,0.0,65,0.00,,SCT050,0.00,VWS V14.01,2013-04-02 09:37:00,
2013-04-02 05:42:00,25.3,15.2,30.02,WNW,299,0.0,0.0,65,0.00,,SCT050,0.00,VWS V14.01,2013-04-02 09:42:00,
2013-04-02 05:52:00,25.3,14.8,30.03,WNW,299,0.0,0.0,64,0.00,,SCT050,0.00,VWS V14.01,2013-04-02 09:52:00,
2013-04-02 05:57:00,25.4,14.9,30.03,WNW,299,0.0,0.0,64,0.00,,SCT050,0.00,VWS V14.01,2013-04-02 09:57:00,
2013-04-02 06:02:00,25.3,14.8,30.03,WNW,299,0.0,0.0,64,0.00,,SCT050,0.00,VWS V14.01,2013-04-02 10:02:00,
2013-04-02 06:07:00,25.3,14.8,30.03,WNW,299,0.0,0.0,64,0.00,,SCT050,0.00,VWS V14.01,2013-04-02 10:07:00,
2013-04-02 06:12:00,25.3,14.8,30.03,WNW,299,0.0,0.0,64,0.00,,SCT050,0.00,VWS V14.01,2013-04-02 10:12:00,
2013-04-02 06:22:00,25.1,15.0,30.03,WNW,299,0.0,0.0,65,0.00,,BKN047,0.00,VWS V14.01,2013-04-02 10:22:00,
2013-04-02 06:32:00,25.0,14.9,30.04,WNW,299,0.0,0.0,65,0.00,,BKN047,0.00,VWS V14.01,2013-04-02 10:32:00,
2013-04-02 06:37:00,25.0,14.9,30.04,WNW,299,0.0,0.0,65,0.00,,BKN047,0.00,VWS V14.01,2013-04-02 10:37:00,
2013-04-02 06:47:00,24.8,14.7,30.05,WNW,299,0.0,0.0,65,0.00,,BKN047,0.00,VWS V14.01,2013-04-02 10:47:00,
2013-04-02 06:52:00,24.8,14.7,30.05,WNW,299,0.0,0.0,65,0.00,,BKN047,0.00,VWS V14.01,2013-04-02 10:52:00,
2013-04-02 07:02:00,24.8,14.4,30.05,West,263,0.0,0.0,64,0.00,,BKN047,0.00,VWS V14.01,2013-04-02 11:02:00,
2013-04-02 07:12:00,25.0,14.6,30.05,WSW,240,0.0,0.0,64,0.00,,BKN047,0.00,VWS V14.01,2013-04-02 11:12:00,
2013-04-02 07:17:00,24.8,14.4,30.05,WSW,247,0.0,0.0,64,0.00,,BKN047,0.00,VWS V14.01,2013-04-02 11:17:00,
2013-04-02 07:27:00,24.7,14.6,30.05,WSW,246,0.0,0.0,65,0.00,,BKN047,0.00,VWS V14.01,2013-04-02 11:27:00,
2013-04-02 07:32:00,24.5,14.4,30.05,WSW,244,0.0,0.0,65,0.00,,BKN047,0.00,VWS V14.01,2013-04-02 11:32:00,
2013-04-02 07:37:00,24.4,14.3,30.05,WSW,244,0.0,0.0,65,0.00,,BKN047,0.00,VWS V14.01,2013-04-02 11:37:00,
2013-04-02 07:42:00,24.4,14.3,30.05,WSW,244,0.0,0.0,65,0.00,,BKN047,0.00,VWS V14.01,2013-04-02 11:42:00,
2013-04-02 07:47:00,24.2,14.5,30.06,WSW,244,0.0,0.0,66,0.00,,BKN047,0.00,VWS V14.01,2013-04-02 11:47:00,
2013-04-02 07:52:00,24.2,14.5,30.06,WSW,244,0.0,0.0,66,0.00,,BKN047,0.00,VWS V14.01,2013-04-02 11:52:00,
2013-04-02 07:57:00,24.2,14.5,30.06,WSW,244,0.0,0.0,66,0.00,,BKN047,0.00,VWS V14.01,2013-04-02 11:57:00,
2013-04-02 08:07:00,24.4,14.7,30.07,WSW,246,0.0,0.0,66,0.00,,BKN047,0.00,VWS V14.01,2013-04-02 12:07:00,
2013-04-02 08:17:00,24.8,15.4,30.07,WSW,246,0.0,0.0,67,0.00,,BKN047,0.00,VWS V14.01,2013-04-02 12:17:00,
2013-04-02 08:22:00,25.1,15.7,30.07,WSW,246,0.0,0.0,67,0.00,,BKN050,0.00,VWS V14.01,2013-04-02 12:22:00,
2013-04-02 08:27:00,25.3,15.6,30.07,WSW,251,0.0,0.0,66,0.00,,BKN050,0.00,VWS V14.01,2013-04-02 12:27:00,
2013-04-02 08:37:00,25.8,15.7,30.08,WSW,251,0.0,0.0,65,0.00,,BKN050,0.00,VWS V14.01,2013-04-02 12:37:00,
2013-04-02 08:42:00,26.1,16.0,30.08,WSW,251,0.0,0.0,65,0.00,,BKN050,0.00,VWS V14.01,2013-04-02 12:42:00,
2013-04-02 08:52:00,26.7,16.2,30.08,West,264,0.0,0.0,64,0.00,,BKN050,0.00,VWS V14.01,2013-04-02 12:52:00,
2013-04-02 08:57:00,27.0,16.5,30.08,West,268,0.0,0.0,64,0.00,,BKN050,0.00,VWS V14.01,2013-04-02 12:57:00,
2013-04-02 09:02:00,27.5,16.9,30.09,West,265,0.0,0.0,64,0.00,,BKN050,0.00,VWS V14.01,2013-04-02 13:02:00,
2013-04-02 09:07:00,27.9,17.3,30.09,West,260,0.0,0.0,64,0.00,,BKN050,0.00,VWS V14.01,2013-04-02 13:07:00,
2013-04-02 09:12:00,28.2,17.2,30.09,West,275,0.0,0.0,63,0.00,,BKN050,0.00,VWS V14.01,2013-04-02 13:12:00,
2013-04-02 09:17:00,28.5,17.5,30.10,West,271,0.0,0.0,63,0.00,,BKN050,0.00,VWS V14.01,2013-04-02 13:17:00,
2013-04-02 09:27:00,29.3,17.9,30.10,West,267,0.0,0.0,62,0.00,,SCT041,0.00,VWS V14.01,2013-04-02 13:27:00,
2013-04-02 09:37:00,30.1,18.7,30.09,West,281,0.0,0.0,62,0.00,,SCT041,0.00,VWS V14.01,2013-04-02 13:37:00,
2013-04-02 09:42:00,30.6,18.8,30.09,West,267,0.0,0.0,61,0.00,,SCT041,0.00,VWS V14.01,2013-04-02 13:42:00,
2013-04-02 09:52:00,30.9,18.7,30.10,NW,308,0.0,0.0,60,0.00,,SCT041,0.00,VWS V14.01,2013-04-02 13:52:00,
2013-04-02 09:57:00,31.2,18.2,30.10,WNW,282,0.0,0.0,58,0.00,,SCT041,0.00,VWS V14.01,2013-04-02 13:57:00,
2013-04-02 10:02:00,31.0,18.0,30.10,West,272,0.0,0.0,58,0.00,,SCT041,0.00,VWS V14.01,2013-04-02 14:02:00,
2013-04-02 10:12:00,31.5,18.4,30.10,WNW,287,0.0,0.0,58,0.00,,SCT041,0.00,VWS V14.01,2013-04-02 14:12:00,
2013-04-02 10:22:00,31.8,17.5,30.10,NW,305,0.0,0.0,55,0.00,,CLR,0.00,VWS V14.01,2013-04-02 14:22:00,
2013-04-02 10:27:00,31.9,17.6,30.10,West,261,0.0,0.0,55,0.00,,CLR,0.00,VWS V14.01,2013-04-02 14:27:00,
2013-04-02 10:32:00,32.5,17.7,30.10,NW,318,0.0,0.0,54,0.00,,CLR,0.00,VWS V14.01,2013-04-02 14:32:00,
2013-04-02 10:37:00,32.2,17.9,30.10,West,277,0.0,0.0,55,0.00,,CLR,0.00,VWS V14.01,2013-04-02 14:37:00,
2013-04-02 10:42:00,32.4,15.9,30.10,West,272,0.0,0.0,50,0.00,,CLR,0.00,VWS V14.01,2013-04-02 14:42:00,
2013-04-02 10:47:00,32.7,17.0,30.10,West,261,0.0,0.0,52,0.00,,CLR,0.00,VWS V14.01,2013-04-02 14:47:00,
2013-04-02 10:57:00,32.7,14.7,30.10,WNW,294,0.0,0.0,47,0.00,,CLR,0.00,VWS V14.01,2013-04-02 14:57:00,
2013-04-02 11:02:00,32.7,12.7,30.11,NNW,330,0.0,0.0,43,0.00,,CLR,0.00,VWS V14.01,2013-04-02 15:02:00,
2013-04-02 11:07:00,32.7,13.2,30.11,NW,323,0.0,0.0,44,0.00,,CLR,0.00,VWS V14.01,2013-04-02 15:07:00,
2013-04-02 11:17:00,33.7,12.5,30.11,West,278,0.0,0.0,41,0.00,,CLR,0.00,VWS V14.01,2013-04-02 15:17:00,
2013-04-02 11:22:00,33.7,12.5,30.11,WNW,292,0.0,0.0,41,0.00,,CLR,0.00,VWS V14.01,2013-04-02 15:22:00,
2013-04-02 11:27:00,34.0,12.8,30.11,NW,320,0.0,0.0,41,0.00,,CLR,0.00,VWS V14.01,2013-04-02 15:27:00,
2013-04-02 11:32:00,33.7,11.4,30.11,NNW,335,0.0,0.0,39,0.00,,CLR,0.00,VWS V14.01,2013-04-02 15:32:00,
2013-04-02 11:42:00,34.3,11.9,30.11,NW,305,0.0,0.0,39,0.00,,CLR,0.00,VWS V14.01,2013-04-02 15:42:00,
2013-04-02 11:52:00,34.4,9.6,30.11,NW,319,0.0,0.0,35,0.00,,CLR,0.00,VWS V14.01,2013-04-02 15:52:00,
2013-04-02 11:57:00,34.7,9.9,30.11,NNW,339,0.0,0.0,35,0.00,,CLR,0.00,VWS V14.01,2013-04-02 15:57:00,
2013-04-02 12:07:00,35.3,11.0,30.10,West,270,0.0,0.0,36,0.00,,CLR,0.00,VWS V14.01,2013-04-02 16:07:00,
2013-04-02 12:12:00,35.0,10.1,30.10,NW,323,0.0,0.0,35,0.00,,CLR,0.00,VWS V14.01,2013-04-02 16:12:00,
2013-04-02 12:17:00,35.6,10.7,30.10,WNW,294,0.0,0.0,35,0.00,,CLR,0.00,VWS V14.01,2013-04-02 16:17:00,
2013-04-02 12:32:00,36.2,8.5,30.09,NW,304,0.0,0.0,31,0.00,,FEW048,0.00,VWS V14.01,2013-04-02 16:32:00,
2013-04-02 12:42:00,36.0,7.6,30.09,NW,304,0.0,0.0,30,0.00,,FEW048,0.00,VWS V14.01,2013-04-02 16:42:00,
2013-04-02 12:47:00,36.0,6.8,30.09,NNW,335,0.0,0.0,29,0.00,,FEW048,0.00,VWS V14.01,2013-04-02 16:47:00,
2013-04-02 12:52:00,36.3,9.3,30.09,NNW,344,0.0,0.0,32,0.00,,FEW048,0.00,VWS V14.01,2013-04-02 16:52:00,
2013-04-02 13:02:00,36.9,7.6,30.09,WNW,294,0.0,0.0,29,0.00,,FEW048,0.00,VWS V14.01,2013-04-02 17:02:00,
2013-04-02 13:12:00,37.8,9.2,30.09,WSW,254,0.0,0.0,30,0.00,,FEW048,0.00,VWS V14.01,2013-04-02 17:12:00,
2013-04-02 13:17:00,37.9,6.9,30.08,NW,312,0.0,0.0,27,0.00,,FEW048,0.00,VWS V14.01,2013-04-02 17:17:00,
2013-04-02 13:22:00,37.8,7.6,30.08,West,261,0.0,0.0,28,0.00,,CLR,0.00,VWS V14.01,2013-04-02 17:22:00,
2013-04-02 13:27:00,38.0,7.8,30.08,WSW,256,0.0,0.0,28,0.00,,CLR,0.00,VWS V14.01,2013-04-02 17:27:00,
2013-04-02 13:32:00,37.8,6.8,30.08,WNW,294,0.0,0.0,27,0.00,,CLR,0.00,VWS V14.01,2013-04-02 17:32:00,
2013-04-02 13:42:00,38.2,8.0,30.08,WSW,244,0.0,0.0,28,0.00,,CLR,0.00,VWS V14.01,2013-04-02 17:42:00,
2013-04-02 13:47:00,38.9,8.6,30.08,SW,230,0.0,0.0,28,0.00,,CLR,0.00,VWS V14.01,2013-04-02 17:47:00,
2013-04-02 13:57:00,38.6,6.7,30.08,West,270,0.0,0.0,26,0.00,,CLR,0.00,VWS V14.01,2013-04-02 17:57:00,
2013-04-02 14:02:00,38.8,6.9,30.07,NW,320,0.0,0.0,26,0.00,,CLR,0.00,VWS V14.01,2013-04-02 18:02:00,
2013-04-02 14:07:00,39.1,7.9,30.07,West,275,0.0,0.0,27,0.00,,CLR,0.00,VWS V14.01,2013-04-02 18:07:00,
2013-04-02 14:12:00,39.6,7.6,30.07,NNW,328,0.0,0.0,26,0.00,,CLR,0.00,VWS V14.01,2013-04-02 18:12:00,
2013-04-02 14:22:00,40.1,9.6,30.07,WSW,243,0.0,0.0,28,0.00,,CLR,0.00,VWS V14.01,2013-04-02 18:22:00,
2013-04-02 14:27:00,40.5,9.2,30.07,West,274,0.0,0.0,27,0.00,,CLR,0.00,VWS V14.01,2013-04-02 18:27:00,
2013-04-02 14:37:00,39.5,7.5,30.06,NNW,337,0.0,0.0,26,0.00,,CLR,0.00,VWS V14.01,2013-04-02 18:37:00,
2013-04-02 14:42:00,39.9,7.8,30.06,WNW,282,0.0,0.0,26,0.00,,CLR,0.00,VWS V14.01,2013-04-02 18:42:00,
2013-04-02 14:47:00,40.5,9.2,30.06,NW,305,0.0,0.0,27,0.00,,CLR,0.00,VWS V14.01,2013-04-02 18:47:00,
2013-04-02 14:57:00,40.6,6.7,30.06,North,0,0.0,0.0,24,0.00,,CLR,0.00,VWS V14.01,2013-04-02 18:57:00,
2013-04-02 15:07:00,40.5,6.6,30.05,NW,318,0.0,0.0,24,0.00,,CLR,0.00,VWS V14.01,2013-04-02 19:07:00,
2013-04-02 15:12:00,40.2,8.1,30.05,WSW,251,0.0,0.0,26,0.00,,CLR,0.00,VWS V14.01,2013-04-02 19:12:00,
2013-04-02 15:17:00,40.6,7.6,30.05,WSW,251,0.0,0.0,25,0.00,,CLR,0.00,VWS V14.01,2013-04-02 19:17:00,
2013-04-02 15:22:00,41.1,7.1,30.05,NW,311,0.0,0.0,24,0.00,,CLR,0.00,VWS V14.01,2013-04-02 19:22:00,
2013-04-02 15:27:00,40.9,6.0,30.05,West,280,0.0,0.0,23,0.00,,CLR,0.00,VWS V14.01,2013-04-02 19:27:00,
2013-04-02 15:32:00,41.2,7.2,30.04,West,268,0.0,0.0,24,0.00,,CLR,0.00,VWS V14.01,2013-04-02 19:32:00,
2013-04-02 15:42:00,40.5,6.6,30.04,West,264,0.0,0.0,24,0.00,,CLR,0.00,VWS V14.01,2013-04-02 19:42:00,
2013-04-02 15:52:00,41.5,7.4,30.04,NNW,340,0.0,0.0,24,0.00,,CLR,0.00,VWS V14.01,2013-04-02 19:52:00,
2013-04-02 15:57:00,42.1,7.9,30.04,NW,308,0.0,0.0,24,0.00,,CLR,0.00,VWS V14.01,2013-04-02 19:57:00,
2013-04-02 16:07:00,41.2,6.2,30.04,NW,306,0.0,0.0,23,0.00,,CLR,0.00,VWS V14.01,2013-04-02 20:07:00,
2013-04-02 16:12:00,41.8,5.8,30.04,WNW,292,0.0,0.0,22,0.00,,CLR,0.00,VWS V14.01,2013-04-02 20:12:00,
2013-04-02 16:17:00,42.5,6.3,30.04,NNE,32,0.0,0.0,22,0.00,,CLR,0.00,VWS V14.01,2013-04-02 20:17:00,
2013-04-02 16:27:00,42.8,6.6,30.04,NNW,339,0.0,0.0,22,0.00,,CLR,0.00,VWS V14.01,2013-04-02 20:27:00,
2013-04-02 16:32:00,42.5,7.3,30.03,North,356,0.0,0.0,23,0.00,,CLR,0.00,VWS V14.01,2013-04-02 20:32:00,
2013-04-02 16:37:00,42.5,8.3,30.03,NW,313,0.0,0.0,24,0.00,,CLR,0.00,VWS V14.01,2013-04-02 20:37:00,
2013-04-02 16:42:00,41.6,4.6,30.03,North,350,0.0,0.0,21,0.00,,CLR,0.00,VWS V14.01,2013-04-02 20:42:00,
2013-04-02 16:47:00,41.5,5.5,30.03,North,356,0.0,0.0,22,0.00,,CLR,0.00,VWS V14.01,2013-04-02 20:47:00,
2013-04-02 17:07:00,42.1,7.0,30.04,NNW,344,0.0,0.0,23,0.00,,CLR,0.00,VWS V14.01,2013-04-02 21:07:00,
2013-04-02 17:12:00,42.2,8.0,30.04,North,354,0.0,0.0,24,0.00,,CLR,0.00,VWS V14.01,2013-04-02 21:12:00,
2013-04-02 17:17:00,42.1,7.0,30.04,NNW,330,0.0,0.0,23,0.00,,CLR,0.00,VWS V14.01,2013-04-02 21:17:00,
2013-04-02 17:27:00,41.9,5.8,30.04,NW,315,0.0,0.0,22,0.00,,CLR,0.00,VWS V14.01,2013-04-02 21:27:00,
2013-04-02 17:37:00,41.6,7.5,30.04,NNW,344,0.0,0.0,24,0.00,,CLR,0.00,VWS V14.01,2013-04-02 21:37:00,
2013-04-02 17:47:00,42.2,4.0,30.04,NW,326,0.0,0.0,20,0.00,,CLR,0.00,VWS V14.01,2013-04-02 21:47:00,
2013-04-02 17:57:00,42.6,7.4,30.04,NNE,28,0.0,0.0,23,0.00,,CLR,0.00,VWS V14.01,2013-04-02 21:57:00,
2013-04-02 18:02:00,42.9,6.7,30.04,NNW,333,0.0,0.0,22,0.00,,CLR,0.00,VWS V14.01,2013-04-02 22:02:00,
2013-04-02 18:12:00,42.2,5.1,30.04,NNW,347,0.0,0.0,21,0.00,,CLR,0.00,VWS V14.01,2013-04-02 22:12:00,
2013-04-02 18:17:00,41.6,5.6,30.04,North,359,0.0,0.0,22,0.00,,CLR,0.00,VWS V14.01,2013-04-02 22:17:00,
2013-04-02 18:27:00,41.3,8.1,30.04,NNE,18,0.0,0.0,25,0.00,,CLR,0.00,VWS V14.01,2013-04-02 22:27:00,
2013-04-02 18:32:00,41.3,7.2,30.05,North,352,0.0,0.0,24,0.00,,CLR,0.00,VWS V14.01,2013-04-02 22:32:00,
2013-04-02 18:42:00,41.6,7.5,30.05,North,359,0.0,0.0,24,0.00,,CLR,0.00,VWS V14.01,2013-04-02 22:42:00,
2013-04-02 18:47:00,41.3,6.3,30.05,NNE,27,0.0,0.0,23,0.00,,CLR,0.00,VWS V14.01,2013-04-02 22:47:00,
2013-04-02 18:52:00,41.1,7.1,30.05,North,7,0.0,0.0,24,0.00,,CLR,0.00,VWS V14.01,2013-04-02 22:52:00,
2013-04-02 19:02:00,40.6,8.4,30.05,NNE,24,0.0,0.0,26,0.00,,CLR,0.00,VWS V14.01,2013-04-02 23:02:00,
2013-04-02 19:07:00,40.5,10.0,30.05,NNE,27,0.0,0.0,28,0.00,,CLR,0.00,VWS V14.01,2013-04-02 23:07:00,
2013-04-02 19:17:00,40.3,9.8,30.06,NNE,30,0.0,0.0,28,0.00,,CLR,0.00,VWS V14.01,2013-04-02 23:17:00,
2013-04-02 19:22:00,40.3,9.0,30.06,NNE,13,0.0,0.0,27,0.00,,CLR,0.00,VWS V14.01,2013-04-02 23:22:00,
2013-04-02 19:32:00,39.6,9.2,30.06,NNW,343,0.0,0.0,28,0.00,,CLR,0.00,VWS V14.01,2013-04-02 23:32:00,
2013-04-02 19:42:00,38.9,8.6,30.06,North,0,0.0,0.0,28,0.00,,CLR,0.00,VWS V14.01,2013-04-02 23:42:00,
2013-04-02 19:52:00,38.2,9.5,30.07,NNE,14,0.0,0.0,30,0.00,,CLR,0.00,VWS V14.01,2013-04-02 23:52:00,
2013-04-02 19:57:00,37.9,9.2,30.07,NNW,339,0.0,0.0,30,0.00,,CLR,0.00,VWS V14.01,2013-04-02 23:57:00,
2013-04-02 20:02:00,38.0,7.8,30.07,North,353,0.0,0.0,28,0.00,,CLR,0.00,VWS V14.01,2013-04-03 00:02:00,
2013-04-02 20:07:00,37.6,9.0,30.07,NNE,16,0.0,0.0,30,0.00,,CLR,0.00,VWS V14.01,2013-04-03 00:07:00,
2013-04-02 20:12:00,37.2,9.4,30.07,North,3,0.0,0.0,31,0.00,,CLR,0.00,VWS V14.01,2013-04-03 00:12:00,
2013-04-02 20:17:00,36.9,9.8,30.07,North,6,0.0,0.0,32,0.00,,CLR,0.00,VWS V14.01,2013-04-03 00:17:00,
2013-04-02 20:27:00,36.6,8.8,30.07,North,1,0.0,0.0,31,0.00,,CLR,0.00,VWS V14.01,2013-04-03 00:27:00,
2013-04-02 20:37:00,35.8,10.2,30.08,North,0,0.0,0.0,34,0.00,,CLR,0.00,VWS V14.01,2013-04-03 00:37:00,
2013-04-02 20:42:00,35.3,10.4,30.08,North,8,0.0,0.0,35,0.00,,CLR,0.00,VWS V14.01,2013-04-03 00:42:00,
2013-04-02 20:47:00,35.2,10.9,30.08,NNE,16,0.0,0.0,36,0.00,,CLR,0.00,VWS V14.01,2013-04-03 00:47:00,
2013-04-02 20:52:00,34.6,11.0,30.08,NNE,16,0.0,0.0,37,0.00,,CLR,0.00,VWS V14.01,2013-04-03 00:52:00,
2013-04-02 20:57:00,34.3,11.4,30.08,NNE,14,0.0,0.0,38,0.00,,CLR,0.00,VWS V14.01,2013-04-03 00:57:00,
2013-04-02 21:07:00,33.8,11.5,30.09,NNE,14,0.0,0.0,39,0.00,,CLR,0.00,VWS V14.01,2013-04-03 01:07:00,
2013-04-02 21:17:00,33.5,10.6,30.09,NNE,14,0.0,0.0,38,0.00,,CLR,0.00,VWS V14.01,2013-04-03 01:17:00,
2013-04-02 21:27:00,33.7,10.2,30.09,NNE,14,0.0,0.0,37,0.00,,CLR,0.00,VWS V14.01,2013-04-03 01:27:00,
2013-04-02 21:32:00,33.8,10.3,30.10,NNE,14,0.0,0.0,37,0.00,,CLR,0.00,VWS V14.01,2013-04-03 01:32:00,
2013-04-02 21:42:00,33.5,10.6,30.10,NNE,14,0.0,0.0,38,0.00,,CLR,0.00,VWS V14.01,2013-04-03 01:42:00,
2013-04-02 21:47:00,33.5,10.0,30.10,NNE,14,0.0,0.0,37,0.00,,CLR,0.00,VWS V14.01,2013-04-03 01:47:00,
2013-04-02 21:52:00,33.5,10.0,30.10,NNE,14,0.0,0.0,37,0.00,,CLR,0.00,VWS V14.01,2013-04-03 01:52:00,
2013-04-02 21:57:00,33.5,10.0,30.10,NNE,14,0.0,0.0,37,0.00,,CLR,0.00,VWS V14.01,2013-04-03 01:57:00,
2013-04-02 22:02:00,33.4,9.9,30.11,NNE,14,0.0,0.0,37,0.00,,CLR,0.00,VWS V14.01,2013-04-03 02:02:00,
2013-04-02 22:12:00,33.2,10.4,30.11,NNE,14,0.0,0.0,38,0.00,,CLR,0.00,VWS V14.01,2013-04-03 02:12:00,
2013-04-02 22:22:00,32.7,9.9,30.11,NNE,14,0.0,0.0,38,0.00,,CLR,0.00,VWS V14.01,2013-04-03 02:22:00,
2013-04-02 22:32:00,32.1,9.9,30.12,NNE,14,0.0,0.0,39,0.00,,CLR,0.00,VWS V14.01,2013-04-03 02:32:00,
2013-04-02 22:42:00,32.2,10.0,30.12,NNE,14,0.0,0.0,39,0.00,,CLR,0.00,VWS V14.01,2013-04-03 02:42:00,
2013-04-02 22:52:00,32.7,9.9,30.12,NNE,14,0.0,0.0,38,0.00,,CLR,0.00,VWS V14.01,2013-04-03 02:52:00,
2013-04-02 22:57:00,32.7,9.9,30.12,NNE,14,0.0,0.0,38,0.00,,CLR,0.00,VWS V14.01,2013-04-03 02:57:00,
2013-04-02 23:07:00,32.5,9.7,30.12,NNE,14,0.0,0.0,38,0.00,,CLR,0.00,VWS V14.01,2013-04-03 03:07:00,
2013-04-02 23:12:00,32.5,9.7,30.12,NNE,14,0.0,0.0,38,0.00,,CLR,0.00,VWS V14.01,2013-04-03 03:12:00,
2013-04-02 23:22:00,32.5,9.7,30.12,NNE,14,0.0,0.0,38,0.00,,CLR,0.00,VWS V14.01,2013-04-03 03:22:00,
2013-04-02 23:32:00,32.4,10.2,30.12,NNE,14,0.0,0.0,39,0.00,,CLR,0.00,VWS V14.01,2013-04-03 03:32:00,
2013-04-02 23:37:00,32.1,9.9,30.12,NNE,14,0.0,0.0,39,0.00,,CLR,0.00,VWS V14.01,2013-04-03 03:37:00,
2013-04-02 23:42:00,31.9,10.3,30.12,NNE,14,0.0,0.0,40,0.00,,CLR,0.00,VWS V14.01,2013-04-03 03:42:00,
2013-04-02 23:52:00,31.8,10.8,30.12,NNE,14,0.0,0.0,41,0.00,,CLR,0.00,VWS V14.01,2013-04-03 03:52:00,
2013-04-02 23:57:00,31.5,11.6,30.12,NNE,14,0.0,0.0,43,0.00,,CLR,0.00,VWS V14.01,2013-04-03 03:57:00,